Regional Weather Roundup
Issued by NWS Raleigh/Durham, NC

Home | Current Version | Previous Version | Text Only | Print | Product List | Glossary On
Versions: 1 2 3 4 5 6 7 8 9 10 11 12 13 14 15 16 17 18 19 20 21 22 23 24 25 26 27
000
ASUS42 KRAH 252110
RWRRAH
NORTH CAROLINA WEATHER ROUNDUP
NATIONAL WEATHER SERVICE RALEIGH NC
500 PM EDT MON JUL 25 2016

NOTE: "FAIR" INDICATES FEW OR NO CLOUDS BELOW 12,000 FEET WITH NO
SIGNIFICANT WEATHER AND/OR OBSTRUCTIONS TO VISIBILITY.

NCZ001-053-055-056-065-067-252200-
WESTERN NORTH CAROLINA

CITY           SKY/WX    TMP DP  RH WIND       PRES   REMARKS
ASHEVILLE      CLOUDY    85  65  51 S7        30.08F
JEFFERSON      NOT AVBL
MORGANTON      MOSUNNY   92  71  49 CALM      30.04F HX  99
HICKORY        MOSUNNY   94  67  41 SW8       29.99S HX  97
RUTHERFORDTON    N/A     94  71  45 CALM      29.99F HX 101
MOUNT AIRY     SUNNY     91  73  55 NW6       30.02F HX 100
BOONE          HVY RAIN  72  65  80 NW7       30.18R VSB 3/4
$$

NCZ021-022-025-041-071-084-088-252200-
CENTRAL NORTH CAROLINA

CITY           SKY/WX    TMP DP  RH WIND       PRES   REMARKS
CHARLOTTE      MOSUNNY   96  68  39 VRB7      29.97F HX 101
GREENSBORO     PTSUNNY   96  67  38 SW10      29.96F HX 100
WINSTON-SALEM  PTSUNNY   96  66  37 W8        29.98F HX  99
RALEIGH-DURHAM PTSUNNY   92  74  55 SW10      29.95F HX 101
FORT BRAGG     SUNNY     94  73  49 SW9       29.96F HX 102
FAYETTEVILLE   MOSUNNY   96  72  45 SW15      29.97F HX 104
BURLINGTON     MOSUNNY   95  69  42 SW8       29.95F HX 100
LAURINBURG     SUNNY     95  73  48 SW10      29.98F HX 104
$$

NCZ011-015-027-028-043-044-047-080-103-252200-
NORTHEASTERN NORTH CAROLINA

CITY           SKY/WX    TMP DP  RH WIND       PRES   REMARKS
ROCKY MT-WILSO SUNNY     94  77  57 SW9       29.96F HX 108
GREENVILLE     MOSUNNY   95  75  52 SW7       29.98S HX 107
ELIZABETH CITY SUNNY     92  73  53 S9G20     29.94F HX 100
MANTEO           N/A     91  78  67 SW20      29.97F HX 106
CAPE HATTERAS  SUNNY     85  78  80 SW10G18   30.00F HX  96
$$

NCZ078-087-090-091-093-098-101-252200-
SOUTHEASTERN NORTH CAROLINA

CITY           SKY/WX    TMP DP  RH WIND       PRES   REMARKS
LUMBERTON      MOSUNNY   93  75  55 S9        29.98F HX 104
GOLDSBORO      MOSUNNY   96  73  46 S10       29.95F HX 106
KINSTON        SUNNY     97  72  44 SW8G16    29.97F HX 105
KENANSVILLE    NOT AVBL
NEW BERN       SUNNY     91  76  61 S10G18    29.99F HX 103
CHERRY POINT   MOSUNNY   89  74  60 S16       30.00F HX  98
BEAUFORT       SUNNY     87  77  72 SW18      30.01F HX  99
JACKSONVILLE   SUNNY     90  71  53 S13       29.99F HX  96
WILMINGTON     SUNNY     90  71  53 SW12      30.00F HX  96
$$





USA.gov is the U.S. government's official web portal to all federal, state and local government web resources and services.